{"data":{"norad_id":66223,"intl_designator":"2025-244T","name":"STARLINK-35664","alt_names":[],"object_type":"PAYLOAD","status":"ACTIVE","operator":null,"country":"US","launch_date":"2025-10-28","launch_site_code":"AFWTR","launch_vehicle":null,"mission":null,"orbit_class":"UNKNOWN","rcs_meters":null,"size_class":null,"mass_kg":null,"dimensions":null,"purposes":["comms"],"wikipedia_slug":null,"has_3d_model":false,"image_url":null,"decayed_at":null,"tle_current":{"epoch":"2026-09-20T14:22:23.759904Z","epoch_age_seconds":88170,"freshness":"FRESH","line1":"1 66223U 25244T   26263.59888611  .00026006  00000+0  77788-3 0  9994","line2":"2 66223  53.1585  42.9649 0001620 138.4625 221.6501 15.34410071 51526","mean_motion":15.34410071,"eccentricity":0.000162,"inclination_deg":53.1585,"raan_deg":42.9649,"arg_perigee_deg":138.4625,"mean_anomaly_deg":221.6501,"bstar":0.00077788,"rev_number":5152,"period_min":93.847142117721,"perigee_km":461.56509596669,"apogee_km":463.78151850623,"semimajor_km":6840.8103072365,"source":"CELESTRAK","updated_at":"2026-09-21T09:00:35.843083Z"}}}